| time (UTC) | temp F | wind direction | speed knots | gust knots | rain 1hr in | rain 24hr in | rain mn in | humidity % | barometer mb |
| 20260506214509 | 36 | 42 | 2.6 | 5.2 | 0.00 | 0.00 | 0.00 | 94 | 1015.3 |
| 20260506213007 | 37 | 48 | 2.6 | 4.3 | 0.00 | 0.00 | 0.00 | 93 | 1015.3 |
| 20260506211509 | 38 | 49 | 1.7 | 3.5 | 0.00 | 0.00 | 0.00 | 92 | 1015.2 |
| 20260506210007 | 38 | 46 | 1.7 | 4.3 | 0.00 | 0.00 | 0.00 | 91 | 1015.2 |
| 20260506204506 | 39 | 49 | 1.7 | 4.3 | 0.00 | 0.00 | 0.00 | 90 | 1015.3 |
| 20260506203005 | 40 | 49 | 2.6 | 4.3 | 0.00 | 0.00 | 0.00 | 89 | 1015.1 |
| 20260506201506 | 40 | 50 | 1.7 | 4.3 | 0.00 | 0.00 | 0.00 | 88 | 1015.1 |
| 20260506200004 | 41 | 48 | 1.7 | 6.1 | 0.00 | 0.00 | 0.00 | 86 | 1015.1 |
| 20260506194504 | 42 | 51 | 3.5 | 7.0 | 0.00 | 0.00 | 0.00 | 85 | 1015.1 |
| 20260506193003 | 42 | 58 | 3.5 | 7.8 | 0.00 | 0.00 | 0.00 | 83 | 1015.0 |
| 20260506191503 | 43 | 30 | 3.5 | 6.1 | 0.00 | 0.00 | 0.00 | 81 | 1014.9 |
| 20260506190007 | 44 | 49 | 2.6 | 5.2 | 0.00 | 0.00 | 0.00 | 78 | 1015.0 |
| 20260506184502 | 44 | 52 | 2.6 | 9.6 | 0.00 | 0.00 | 0.00 | 76 | 1015.0 |
| 20260506183106 | 45 | 63 | 3.5 | 9.6 | 0.00 | 0.00 | 0.00 | 75 | 1014.8 |
| 20260506181623 | 45 | 38 | 4.3 | 10.4 | 0.00 | 0.00 | 0.00 | 73 | 1014.9 |
| 20260506180059 | 46 | 56 | 2.6 | 10.4 | 0.00 | 0.00 | 0.00 | 72 | 1014.7 |
| 20260506174558 | 46 | 37 | 5.2 | 12.2 | 0.00 | 0.00 | 0.00 | 70 | 1014.7 |
| 20260506173106 | 47 | 53 | 5.2 | 11.3 | 0.00 | 0.00 | 0.00 | 68 | 1014.7 |
| 20260506171600 | 47 | 58 | 3.5 | 13.0 | 0.00 | 0.00 | 0.00 | 66 | 1014.7 |
| 20260506170057 | 47 | 48 | 5.2 | 10.4 | 0.00 | 0.00 | 0.00 | 64 | 1014.7 |
| 20260506164607 | 48 | 51 | 2.6 | 9.6 | 0.00 | 0.00 | 0.00 | 65 | 1014.8 |
| 20260506163055 | 48 | 98 | 6.1 | 11.3 | 0.00 | 0.00 | 0.00 | 62 | 1014.7 |
| 20260506161555 | 48 | 27 | 3.5 | 13.0 | 0.00 | 0.00 | 0.00 | 63 | 1014.9 |
| 20260506154601 | 49 | 44 | 7.8 | 14.8 | 0.00 | 0.00 | 0.00 | 60 | 1014.9 |
| 20260506153111 | 49 | 62 | 4.3 | 12.2 | 0.00 | 0.00 | 0.00 | 62 | 1014.8 |
| 20260506151553 | 49 | 16 | 7.8 | 12.2 | 0.00 | 0.00 | 0.00 | 60 | 1014.9 |
| 20260506150059 | 50 | 108 | 6.1 | 13.9 | 0.00 | 0.00 | 0.00 | 59 | 1015.0 |
| 20260506144557 | 50 | 86 | 2.6 | 13.9 | 0.00 | 0.00 | 0.00 | 61 | 1014.9 |
| 20260506143050 | 50 | 61 | 5.2 | 13.9 | 0.00 | 0.00 | 0.00 | 60 | 1015.0 |
| 20260506141551 | 50 | 46 | 4.3 | 11.3 | 0.00 | 0.00 | 0.00 | 61 | 1014.9 |
| 20260506140050 | 50 | 56 | 5.2 | 13.0 | 0.00 | 0.00 | 0.00 | 61 | 1014.9 |
| 20260506134550 | 50 | 74 | 7.0 | 13.9 | 0.00 | 0.00 | 0.00 | 56 | 1014.9 |
| 20260506133049 | 51 | 68 | 7.0 | 15.6 | 0.00 | 0.00 | 0.00 | 57 | 1014.8 |
| 20260506131553 | 50 | 119 | 5.2 | 14.8 | 0.00 | 0.00 | 0.00 | 61 | 1015.0 |
| 20260506130048 | 51 | 54 | 7.0 | 13.0 | 0.00 | 0.00 | 0.00 | 58 | 1015.0 |
| 20260506124547 | 52 | 27 | 5.2 | 13.9 | 0.00 | 0.00 | 0.00 | 55 | 1015.0 |
| 20260506123047 | 52 | 38 | 4.3 | 13.0 | 0.00 | 0.00 | 0.00 | 58 | 1015.1 |
| 20260506121545 | 53 | 35 | 7.8 | 14.8 | 0.00 | 0.00 | 0.00 | 58 | 1015.2 |
| 20260506120045 | 52 | 77 | 5.2 | 11.3 | 0.00 | 0.00 | 0.00 | 60 | 1015.4 |
| 20260506114544 | 51 | 59 | 5.2 | 13.9 | 0.00 | 0.00 | 0.00 | 61 | 1015.6 |
| 20260506113044 | 52 | 98 | 5.2 | 12.2 | 0.00 | 0.00 | 0.00 | 62 | 1015.5 |
| 20260506111545 | 51 | 96 | 7.8 | 14.8 | 0.00 | 0.00 | 0.00 | 63 | 1015.6 |
| 20260506110043 | 51 | 36 | 5.2 | 11.3 | 0.00 | 0.00 | 0.00 | 62 | 1015.6 |
| 20260506104543 | 52 | 43 | 4.3 | 13.9 | 0.00 | 0.00 | 0.00 | 62 | 1015.6 |
| 20260506103051 | 52 | 70 | 5.2 | 13.0 | 0.00 | 0.00 | 0.00 | 61 | 1015.5 |
| 20260506101541 | 52 | 36 | 5.2 | 13.0 | 0.00 | 0.00 | 0.00 | 60 | 1015.5 |
| 20260506100040 | 53 | 98 | 5.2 | 10.4 | 0.00 | 0.00 | 0.00 | 60 | 1015.3 |
| 20260506094540 | 53 | 29 | 6.1 | 11.3 | 0.00 | 0.00 | 0.00 | 60 | 1015.3 |
| 20260506093037 | 53 | 41 | 5.2 | 13.9 | 0.00 | 0.00 | 0.00 | 60 | 1015.2 |
| 20260506091541 | 53 | 46 | 6.1 | 11.3 | 0.00 | 0.00 | 0.00 | 61 | 1015.1 |
| 20260506090035 | 53 | 38 | 4.3 | 15.6 | 0.00 | 0.00 | 0.00 | 61 | 1015.0 |
| 20260506084537 | 53 | 13 | 6.1 | 11.3 | 0.00 | 0.00 | 0.00 | 61 | 1015.2 |
| 20260506083031 | 53 | 39 | 7.0 | 13.9 | 0.00 | 0.00 | 0.00 | 60 | 1015.3 |
| 20260506081530 | 52 | 58 | 5.2 | 11.3 | 0.00 | 0.00 | 0.00 | 59 | 1015.3 |
| 20260506073024 | 51 | 86 | 6.1 | 10.4 | 0.00 | 0.00 | 0.00 | 62 | 1015.2 |
| 20260506071521 | 50 | 53 | 5.2 | 8.7 | 0.00 | 0.00 | 0.00 | 64 | 1015.3 |
| 20260506061509 | 47 | 81 | 1.7 | 5.2 | 0.00 | 0.00 | 0.00 | 78 | 1015.1 |
| 20260506050103 | 41 | 46 | 2.6 | 5.2 | 0.00 | 0.00 | 0.00 | 89 | 1014.8 |
| 20260506044553 | 40 | 59 | 2.6 | 5.2 | 0.00 | 0.00 | 0.00 | 89 | 1014.8 |
| 20260506043050 | 40 | 48 | 2.6 | 7.0 | 0.00 | 0.00 | 0.00 | 89 | 1014.6 |
| 20260506041545 | 38 | 70 | 1.7 | 6.1 | 0.00 | 0.00 | 0.00 | 87 | 1014.8 |
| 20260506033035 | 32 | 51 | 0.9 | 3.5 | 0.00 | 0.00 | 0.00 | 88 | 1014.6 |
| 20260506031533 | 31 | 58 | 1.7 | 4.3 | 0.00 | 0.00 | 0.00 | 88 | 1014.6 |
| 20260506030131 | 31 | 61 | 2.6 | 3.5 | 0.00 | 0.00 | 0.00 | 88 | 1014.5 |
| 20260506023021 | 31 | 53 | 1.7 | 3.5 | 0.00 | 0.00 | 0.00 | 87 | 1014.4 |
| 20260506021521 | 31 | 60 | 0.0 | 1.7 | 0.00 | 0.00 | 0.00 | 88 | 1014.4 |
| 20260506020017 | 31 | 60 | 0.0 | 3.5 | 0.00 | 0.00 | 0.00 | 87 | 1014.3 |
| 20260506014516 | 31 | 61 | 0.9 | 2.6 | 0.00 | 0.00 | 0.00 | 87 | 1014.2 |
| 20260506013022 | 32 | 60 | 0.9 | 1.7 | 0.00 | 0.00 | 0.00 | 88 | 1014.0 |
| 20260506011513 | 32 | 61 | 0.9 | 3.5 | 0.00 | 0.00 | 0.00 | 88 | 1013.9 |
| 20260506010112 | 31 | 66 | 1.7 | 3.5 | 0.00 | 0.00 | 0.00 | 89 | 1013.7 |
| 20260506004511 | 31 | 93 | 1.7 | 2.6 | 0.00 | 0.00 | 0.00 | 89 | 1013.7 |
| 20260506003009 | 32 | 134 | 0.0 | 1.7 | 0.00 | 0.00 | 0.00 | 89 | 1013.9 |
| 20260506001507 | 32 | 134 | 0.9 | 2.6 | 0.00 | 0.00 | 0.00 | 90 | 1013.9 |
| 20260506000005 | 32 | 144 | 0.9 | 2.6 | 0.00 | 0.00 | 0.00 | 90 | 1013.7 |
| 20260505234504 | 32 | 177 | 0.0 | 1.7 | 0.00 | 0.00 | 0.00 | 90 | 1013.8 |
| 20260505233102 | 32 | 184 | 0.0 | 0.0 | 0.00 | 0.00 | 0.00 | 91 | 1013.9 |
| 20260505231558 | 33 | 190 | 0.0 | 0.0 | 0.00 | 0.00 | 0.00 | 91 | 1014.0 |
| 20260505230105 | 33 | 203 | 0.0 | 0.0 | 0.00 | 0.00 | 0.00 | 91 | 1013.9 |
| 20260505224554 | 34 | 203 | 0.0 | 0.0 | 0.00 | 0.00 | 0.00 | 92 | 1014.0 |
| 20260505223102 | 34 | 203 | 0.0 | 0.0 | 0.00 | 0.00 | 0.00 | 92 | 1013.9 |
| 20260505221550 | 35 | 206 | 0.0 | 0.0 | 0.00 | 0.00 | 0.00 | 92 | 1014.0 |
| 20260505220046 | 35 | 206 | 0.0 | 0.0 | 0.00 | 0.00 | 0.00 | 92 | 1013.8 |